THORAD DELTA 1 DEB, 8166

Orbit data source: Space-Track

THORAD DELTA 1 DEB, 8166 is space debris in SSO originally from a launch on Fri, 15 Nov 1974 UTC launched from the Air Force Western Test Range (AFWTR). Debris objects in space refer to the collection of defunct objects orbiting the Earth. Examples of debris include non-operational satellites, rocket bodies, and fragments generated from explosions, collisions, or faulty payload assembly.

Loading next visibility...
THORAD DELTA 1 DEB details
Identifier
8166, 1974-089AG
Orbit
SSO
Last TLE update2 days ago
Origin
Flag of USGSFC (US)
ManufacturerUnknown
MissionSpacecraft
Bus & MotorUnknown
MassUnknown
Launch date (UTC)
1974-11-15 (50 years ago)
Launch vehicleUnknown
Launch site
Air Force Western Test Range (AFWTR)
Object type
Payload
Rocket body
Debris
Shape & HBRUnknown
Radar Cross SectionSmall (<0.1 m²)

Expand to show TLE details & history

TLE from 2 days ago
0 THORAD DELTA 1 DEB
1 08166U 74089AG  25022.42010817  .00000139  00000-0  11909-2 0  9998
2 08166 101.9825  10.5161 0039326 250.8622 267.0856 12.51549047290059
Epoch: 2025-01-22T10:04Z
Definitive object data (Epoch: 2025-01-22T10:04:57.345Z)
Latitude22.00089°
Longitude-77.83996°
Altitude1,462.079 km
Speed7.133 km/s
True Right ascension13h 01m 38s
True Declination21° 53' 33"
Sunlit
Object was in daylight at TLE epoch
Visualization TLE readout
Latitude-68.97521°
Longitude132.79382°
Altitude1,460.377 km
Speed7.143 km/s
Apparent Right ascension03h 33m 30s
Apparent Declination-55° 56' 46"
Sunlit
Object is in daylight
Visualization observer readout
Local Sidereal Time15:50:21
Azimuth171.557° S
Elevation-73.731°
Doppler factor1
Orbital elements
Apogee altitude1,486.388 km
Perigee altitude1,424.774 km
Semi-major axis7,833.718 km
Eccentricity0.0039326
Inclination101.9825°
RAAN10.5161°
Arg. of periapsis250.8622°
True anomaly266.63566°
Mean anomaly267.0856°
Eccentric anomaly266.86062°
Mean motion3.13034 °/min
BSTAR0.0011909
Orbital period115 mins
Loading maneuver chart data...

THORAD DELTA 1 DEB Visibility forecast

Observer location: undefined°, undefined

Span
Click to sort rows by Start time (UTC) header in descending order
Start Az.
Max El. time (UTC)
Max El. Az.
Max El.
End time (UTC)
End Az.
10 mins2025-01-24 20:54:09.963Z90.898° ESE2025-01-24 20:59:09.963Z51.448° ENE19.762°2025-01-24 21:04:09.963Z11.811° NNE
15 mins2025-01-24 22:44:09.963Z158.202° S2025-01-24 22:51:09.963Z18.593° NNE44.907°2025-01-24 22:59:09.963Z343.145° N
9 mins2025-01-25 00:41:09.963Z238.915° WSW2025-01-25 00:45:09.963Z271.909° WNW17.771°2025-01-25 00:50:09.963Z309.13° NW
12 mins2025-01-25 10:48:09.963Z43.378° NE2025-01-25 10:54:09.963Z96.314° ESE26.294°2025-01-25 11:00:09.963Z149.45° SSE
14 mins2025-01-25 12:41:09.963Z7.457° NNE2025-01-25 12:47:09.963Z302.997° NW41.058°2025-01-25 12:55:09.963Z217.67° SW
|